User: anonymous   Login
Location: Unspecified
(0.0000°N, 0.0000°E)
Time: 09:14:32
(UTC+00:00)
Language:

USA 200 - Orbit

View from above orbital plane
View from above orbital plane
View from above satellite
View from above satellite

Ground track
Ground track

The orbit data is extracted from the following two-line orbital elements,

1 32706U 08010A   20154.00770060 -.00000497  00000-0  00000-0 0    03
2 32706  63.2510 216.5267 6753139 271.2849  18.4767  2.00579399    00
Epoch (UTC): 02 June 2020 00:11:05
Eccentricity: 0.6753139
inclination: 63.2510°
perigee height: 2245 km
apogee height: 38116 km
right ascension of ascending node: 216.5267°
argument of perigee: 271.2849°
revolutions per day: 2.00579399
mean anomaly at epoch: 18.4767°
orbit number at epoch: 0

The dashed part of the orbit path shows where the satellite is in the earth's shadow,  

DLR